Weather History for West Palm Beach, FL

Change the Weather History Date:

Monday, March 10, 2014

  Actual Average Record
Temperature  
Mean Temperature 72 °F 70 °F  
Max Temperature 82 °F 78 °F 91 °F (1964)
Min Temperature 61 °F 62 °F 36 °F (1914)
Degree Days  
Heating Degree Days 0 1  
Month to date heating degree days 2 10  
Since 1 July heating degree days 117 215  
Cooling Degree Days 7 6  
Month to date cooling degree days 51 58  
Year to date cooling degree days 397 293  
Growing Degree Days 22 (Base 50)    
Moisture  
Dew Point 60 °F    
Average Humidity 69    
Maximum Humidity 93    
Minimum Humidity 45    
Precipitation  
Precipitation 0.00 in 0.16 in 1.25 in (1986)
Month to date precipitation 0.26 1.37  
Year to date precipitation 11.74 7.32  
Snow  
Snow 0.00 in - - ()
Month to date snowfall 0.0  
Since 1 July snowfall 0.0  
Snow Depth 0.00 in    
Sea Level Pressure  
Sea Level Pressure 30.05 in    
Wind  
Wind Speed 7 mph (WSW)    
Max Wind Speed 16 mph    
Max Gust Speed 23 mph    
Visibility 10 miles    
Events      
T = Trace of Precipitation, MM = Missing Value Source: NWS Daily Summary

Daily Weather History Graph

Daily Weather History Graph

Search for Another Location

Airport:

Trip Planner

Search our weather history database for the weather conditions in past years. The results will help you decide how hot, cold, wet, or windy it might be!

Date:

Astronomy

Mar. 10, 2014 Rise Set
Actual Time 7:35 AM EDT 7:26 PM EDT
Civil Twilight 7:11 AM EDT 7:49 PM EDT
Nautical Twilight 6:45 AM EDT 8:16 PM EDT
Astronomical Twilight 6:18 AM EDT 8:43 PM EDT
Moon 2:30 PM EDT (3/10) 3:23 AM EDT (3/10)
Length of Visible Light 12h 37m
Length of Day
11h 51m
Waxing Gibbous, 70% of the Moon is Illuminated
Mar 10
Waxing Gibbous
Mar 16
Full
Mar 23
Last Quarter
Mar 30
New
Apr 7
First Quarter

Hourly Weather History & Observations

Time (EDT) Temp. Heat Index Dew Point Humidity Pressure Visibility Wind Dir Wind Speed Gust Speed Precip Events Conditions
12:53 AM 66.9 °F - 61.0 °F 81% 30.10 in 10.0 mi Calm Calm - N/A   Partly Cloudy
1:53 AM 64.9 °F - 60.1 °F 84% 30.10 in 10.0 mi WSW 4.6 mph - N/A   Clear
2:53 AM 64.0 °F - 60.1 °F 87% 30.09 in 10.0 mi WSW 3.5 mph - N/A   Partly Cloudy
3:53 AM 64.9 °F - 62.1 °F 90% 30.08 in 10.0 mi West 5.8 mph - N/A   Mostly Cloudy
4:53 AM 64.9 °F - 61.0 °F 87% 30.07 in 10.0 mi West 4.6 mph - N/A   Mostly Cloudy
5:53 AM 64.0 °F - 60.1 °F 87% 30.06 in 10.0 mi WSW 3.5 mph - N/A   Partly Cloudy
6:53 AM 64.0 °F - 60.1 °F 87% 30.08 in 10.0 mi WSW 5.8 mph - N/A   Partly Cloudy
7:53 AM 63.0 °F - 60.1 °F 90% 30.09 in 10.0 mi West 6.9 mph - N/A   Scattered Clouds
8:53 AM 66.9 °F - 62.1 °F 84% 30.10 in 10.0 mi West 4.6 mph - N/A   Scattered Clouds
9:53 AM 73.0 °F - 61.0 °F 66% 30.11 in 10.0 mi WNW 8.1 mph - N/A   Partly Cloudy
10:53 AM 75.0 °F - 57.9 °F 55% 30.12 in 10.0 mi West 10.4 mph - N/A   Partly Cloudy
11:53 AM 75.9 °F - 57.9 °F 54% 30.11 in 10.0 mi WSW 8.1 mph - N/A   Scattered Clouds
12:53 PM 78.1 °F - 59.0 °F 52% 30.09 in 10.0 mi WSW 6.9 mph - N/A   Mostly Cloudy
1:53 PM 78.1 °F - 57.9 °F 50% 30.06 in 10.0 mi Variable 5.8 mph - N/A   Mostly Cloudy
2:53 PM 80.1 °F 80.4 °F 57.0 °F 45% 30.02 in 10.0 mi West 5.8 mph - N/A   Mostly Cloudy
3:53 PM 81.0 °F 81.3 °F 59.0 °F 47% 29.99 in 10.0 mi Variable 6.9 mph - N/A   Partly Cloudy
4:53 PM 81.0 °F 81.0 °F 57.0 °F 44% 29.98 in 10.0 mi SW 9.2 mph - N/A   Partly Cloudy
5:53 PM 78.1 °F - 60.1 °F 54% 29.97 in 10.0 mi SSE 10.4 mph - N/A   Partly Cloudy
6:53 PM 75.9 °F - 61.0 °F 60% 29.97 in 10.0 mi SSE 13.8 mph - N/A   Partly Cloudy
7:53 PM 73.9 °F - 61.0 °F 64% 29.99 in 10.0 mi South 8.1 mph - N/A   Partly Cloudy
8:53 PM 73.9 °F - 62.1 °F 66% 29.99 in 10.0 mi South 9.2 mph - N/A   Scattered Clouds
9:53 PM 73.0 °F - 62.1 °F 68% 30.00 in 10.0 mi South 9.2 mph - N/A   Mostly Cloudy
10:53 PM 73.0 °F - 60.1 °F 64% 30.02 in 10.0 mi WSW 8.1 mph - N/A   Mostly Cloudy
11:53 PM 70.0 °F - 57.9 °F 65% 30.02 in 10.0 mi West 9.2 mph - N/A   Partly Cloudy